Regional Weather Roundup
Issued by NWS Charleston, SC

Current Version | Previous Version | Graphics & Text | Print | Product List | Glossary On
Versions: 1 2 3 4 5 6 7 8 9 10 11 12 13 14 15 16 17 18 19 20 21 22 23 24 25 26 27 28 29 30 31 32 33 34 35 36 37 38 39 40 41 42 43 44 45 46 47 48 49 50
000 ASUS42 KCHS 301910 RWRCHS REGIONAL WEATHER ROUNDUP NATIONAL WEATHER SERVICE CHARLESTON SC 300 PM EDT SAT AUG 30 2014 NOTE: "FAIR" INDICATES FEW OR NO CLOUDS BELOW 12,000 FEET WITH NO SIGNIFICANT WEATHER AND/OR OBSTRUCTIONS TO VISIBILITY. NOT ALL STATIONS ARE QUALITY CONTROLLED BY THE NATIONAL WEATHER SERVICE. USE DATA WITH CAUTION...ESPECIALLY DEWPOINT OBSERVATIONS. SCZ027-030-031-034>040-042>050-302000- ...SOUTH CAROLINA... CITY SKY/WX TMP DP RH WIND PRES REMARKS N CHARLESTON MOSUNNY 88 72 58 SE13 30.14F HX 94 WATERFRONT PRK N/A 86 N/A N/A E24 N/A FORT JOHNSON NOT AVBL MOUNT PLEASANT FAIR 88 75 66 E8 30.15F HX 97 JOHNS ISLAND MOCLDY 86 79 79 E10 30.15F HX 99 PINOPOLIS N/A 90 72 55 E5 30.08S HX 96 MONCKS CORNER N/A 91 75 59 S9 30.14F HX 102 SUMMERVILLE MOCLDY 91 72 52 SE6 30.14F HX 98 BEAUFORT MCAS PTSUNNY 91 75 59 S6 30.13F HX 101 BEAUFORT ARPT MOCLDY 88 75 66 E9 30.13F HX 97 HILTON HEAD IS MOSUNNY 88 79 74 NE9 30.15F HX 102 GEORGETOWN NOT AVBL WALTERBORO PTCLDY 90 64 43 E7 30.14S HX 91 ORANGEBURG CLOUDY 92 65 40 SE8 30.13F HX 94 BARNWELL NOT AVBL AIKEN MOCLDY 95 70 43 E7 30.15F HX 101 MANNING FAIR 90 68 48 SE5 30.14F HX 93 KINGSTREE NOT AVBL COLUMBIA MOSUNNY 93 59 31 CALM 30.12F HX 92 SUMTER MOSUNNY 92 65 40 VRB6 30.12F HX 94 FLORENCE SUNNY 91 64 40 SE6 30.14F HX 92 MYRTLE BEACH MOSUNNY 88 75 66 SE9 30.17F HX 97 N MYRTLE BEACH SUNNY 86 75 69 SE8 30.16F HX 95 $$ GAZ063-065-086>088-099>101-113>116-118-119-134-136>141-150-302000- ...GEORGIA... CITY SKY/WX TMP DP RH WIND PRES REMARKS SAVANNAH ARPT PTSUNNY 92 71 50 E13 30.12 HX 98 HUNTER AAF MOSUNNY 90 74 59 E14 30.11F HX 99 FORT STEWART MOSUNNY 93 72 50 E13 30.10F HX 101 STATESBORO NOT AVBL SYLVANIA PTCLDY 90 71 52 SE6 30.12F HX 96 CLAXTON NOT AVBL THOMSON MOSUNNY 94 75 54 SE7 30.16F HX 104 AUGUSTA-BUSH PTSUNNY 93 65 39 SE8 30.10F HX 95 AUGUSTA-DANIEL MOSUNNY 93 66 40 MISG 30.13F HX 96 SWAINSBORO MOCLDY 99 70 39 S7 30.11F HX 105 VIDALIA N/A 97 68 38 E9 30.10F HX 101 ALMA PTSUNNY 92 69 47 SE8 30.10F HX 97 WAYCROSS PTSUNNY 96 73 48 E12 30.10F HX 105 JESUP N/A 97 73 46 SE5 30.10F HX 107 BRUNSWICK PTSUNNY 90 72 55 E12 30.12F HX 96 SAINT SIMONS SUNNY 87 76 69 E10 30.12F HX 97 $$ SCZ027-028-034-036>038-045-046-048>050-GAZ119-141-302000- ...LAKE AND SUPPLEMENTAL COASTAL OBSERVATIONS... STATION/POSITION TIME TEMP WIND PRES WAVE SWELL AIR SEA DIR/SP/G HT/PER HT/PER/DIR (UTC) (F) (DEG/KT/KT) (MB) (FT/S) (FT/S/D) UPR LAKE MARION NOT AVBL WINYAH BAY 1800 83 100/ 6 1022.0S LAKE MURRAY 1800 89 230/ 2/ 3 1019.6F ACE BASIN NERRS 1800 87 120/ 4 1021.0F FORT PULASKI 1900 84 70/ 12/ 13 1020.8F SAPELO ISLAND 1800 89 90/ 9 1021.0F $$ ANZ835-935-AMZ111-154-330-350-352-354-374-450-454-472-302000- ...C-MAN AND BUOY OBSERVATIONS... STATION/POSITION TIME TEMP WIND PRES WAVE SWELL AIR SEA DIR/SP/G HT/PER HT/PER/DIR (UTC) (F) (DEG/KT/KT) (MB) (FT/S) (FT/S/D) FOLLY BEACH CMAN 1800 83 90/ 9/ 10 1021.9F BUOY 41004 1900 83 84 90/ 8/ 10 1020.5F 2/ 9 2/ 9 BUOY 41008 1900 81 85 90/ 6/ 10 1020.1F 2/ 9 2/ 90/ 9 5E ST. MARYS GA 1900 87 N/A 2/ 8 FRYING PAN BUOY NOT AVBL BUOY 41025 1900 80 170/ 6/ 8 1022.4F 3/ 8 3/ 70/ 8 CAPE LOOKOUT NC 1800 79 160/ 6/ 6 1022.6F BUOY 41002 1838 82 83 140/ 8/ 12 1022.4F 4/ 8 3/120/ 8 BUOY 41010 1900 83 85 40/ 6/ 8 1020.2F 3/ 8 3/100/ 8 BUOY 41012 NOT AVBL ST AUGUSTINE FL 1900 82 90/ 10/ 12 1020.1F CAPERS NEARSHORE 1800 83 120/ 8/ 10 N/A FRIPP NEARSHORE NOT AVBL $$

USA.gov is the U.S. government's official web portal to all federal, state and local government web resources and services.